YZ-1 R/B, 41929

Orbit data source: Space-Track

YZ-1 R/B, 41929 is space debris in HEO originally from a launch on Mon, 30 Mar 2015 UTC launched from the Xichang Space Center, China (XSC). Debris objects in space refer to the collection of defunct objects orbiting the Earth. Examples of debris include non-operational satellites, rocket bodies, and fragments generated from explosions, collisions, or faulty payload assembly.

Loading next visibility...
YZ-1 R/B details
Identifier
41929, 2015-019C
Orbit
HEO
Last TLE updatein 3 days
Origin
Flag of CNCASC (CN / PRC)
ManufacturerCALT
MissionSpacecraft
Bus & MotorYZ-1, Unknown motor
Mass2,075 kg wet, 2,075 kg dry
Launch date (UTC)
2015-03-30 (10 years ago)
Launch vehicleUnknown
Launch site
Xichang Space Center, China (XSC)
Object type
Payload
Rocket body
Debris
Shape & HBRDouble Cone, 4 m
Radar Cross Section5.890 m², Large (>1 m²)

Expand to show TLE details & history

TLE from in 3 days
0 YZ-1 R/B
1 41929U 15019C   24364.24199461  .00000107  00000-0  00000+0 0  9993
2 41929  12.1365 178.0679 6049800 222.7295   0.9042  0.27926614  9280
Epoch: 2024-12-29T05:48Z
Definitive object data (Epoch: 2024-12-29T05:48:28.334Z)
Latitude-7.9679°
Longitude-146.31018°
Altitude32,903.42 km
Speed4.033 km/s
True Right ascension02h 35m 57s
True Declination-7° 57' 34"
Sunlit
Object was in daylight at TLE epoch
Visualization TLE readout
Latitude2.22881°
Longitude2.98376°
Altitude120,993.2 km
Speed1.492 km/s
Apparent Right ascension12h 33m 40s
Apparent Declination0° 24' 45"
Sunlit
Object is in daylight
Visualization observer readout
Local Sidereal Time12:19:23
Azimuth174.392° S
Elevation50.362°
Doppler factor1
Orbital elements
Apogee altitude152,304.654 km
Perigee altitude32,677.101 km
Semi-major axis98,869.014 km
Eccentricity0.60498
Inclination12.1365°
RAAN178.0679°
Arg. of periapsis222.7295°
True anomaly4.61017°
Mean anomaly0.9042°
Eccentric anomaly2.28807°
Mean motion0.06982 °/min
BSTARUnknown
Orbital period5156.44 mins
Loading maneuver chart data...
Loading historical data...
Loading historical data...
Loading historical data...
Loading historical data...
Loading historical data...
Loading historical data...
Loading historical data...
Other satellites on launch #19 in the year 2015 (2015-03-30 UTC)

YZ-1 R/B Visibility forecast

Observer location: undefined°, undefined

Span
Click to sort rows by Start time (UTC) header in descending order
Start Az.
Max El. time (UTC)
Max El. Az.
Max El.
End time (UTC)
End Az.
363 mins2024-12-26 12:57:47.162Z174.393° S2024-12-26 13:20:47.162Z182.591° SSW37.711°2024-12-26 19:00:47.162Z264.952° W
185 mins2024-12-27 09:52:47.162Z90.144° ESE2024-12-27 12:57:47.162Z122.619° SE34.001°2024-12-27 12:57:47.162Z122.619° SE
|